Probability
0 0 0 0 0 0 0 0 0 0 0 0 0 0 6 13 16 23 19 26 35 29 39 52 45 39 58 65 74 74 71 74 74 74 71 68 68 65 65 71 58 58 65 65
0 0 0 0 0 0 0 0 0 0 0 0 3 3 13 16 19 26 19 32 35 35 45 45 52 52 58 68 74 74 74 71 71 71 68 68 61 58 58 58 68 61 65 71
0 0 0 0 0 0 0 0 0 0 0 0 0 3 10 13 13 16 16 23 29 32 45 48 58 48 45 58 65 68 71 65 65 65 61 65 68 65 58 61 65 61 61 68
0 0 0 0 0 0 0 0 0 0 0 0 0 0 10 16 16 13 16 23 19 29 39 45 45 55 48 58 68 71 71 71 68 68 61 65 61 58 61 61 58 65 58 61
0 0 0 0 0 0 0 0 0 0 0 0 0 0 6 10 13 10 19 26 23 19 29 39 45 55 58 55 61 71 71 68 71 71 71 71 68 71 65 61 58 65 58 52
0 0 0 0 0 0 0 0 0 0 0 0 0 0 0 3 10 10 19 23 26 16 23 35 45 48 52 58 58 71 71 71 71 68 68 68 71 68 61 61 65 65 65 55
0 0 0 0 0 0 0 0 0 0 0 0 0 0 6 3 3 10 13 13 19 19 23 29 42 48 48 58 55 65 71 71 68 68 65 71 68 68 65 61 55 65 61 55
0 0 0 0 0 0 0 0 0 0 0 0 0 3 6 10 6 6 16 16 29 19 26 35 45 45 48 45 52 61 68 71 71 65 65 68 71 68 58 65 58 58 55 58
0 0 0 0 0 0 0 0 0 0 0 0 0 3 10 10 6 10 10 13 16 13 19 26 35 45 42 45 52 61 65 68 68 61 68 71 71 65 65 65 65 58 58 52
0 0 0 0 0 0 0 0 0 0 0 0 0 3 6 10 10 10 13 13 19 16 23 26 35 42 42 42 45 61 58 61 65 58 65 55 61 65 65 65 61 61 65 58
0 0 0 0 0 0 0 0 0 3 0 0 0 3 6 10 13 6 10 13 23 23 26 26 32 39 39 39 39 48 55 58 55 55 58 55 58 68 68 65 65 71 65 61
0 0 0 0 0 0 0 0 0 3 3 0 3 6 3 3 10 13 13 19 19 16 19 19 32 32 35 35 39 42 48 55 55 52 48 52 55 61 65 65 71 71 71 68
0 0 0 0 0 0 0 0 0 3 3 0 3 0 13 13 6 10 16 19 23 10 16 23 32 35 29 32 35 39 39 39 45 48 48 48 55 61 61 61 68 71 68 68
0 0 0 0 0 0 0 0 0 0 0 0 0 3 6 10 10 6 16 19 23 23 19 23 32 42 42 42 35 29 32 32 35 39 48 48 48 52 61 58 61 65 65 68
0 0 0 0 0 0 0 0 0 0 0 0 3 10 10 6 10 10 19 19 19 19 23 26 26 35 35 35 35 35 32 42 32 35 42 52 52 55 52 61 61 65 61 45
0 0 0 0 0 0 0 0 0 0 0 3 6 16 10 10 13 16 16 19 26 19 19 29 29 29 32 39 39 35 32 39 35 42 45 42 45 52 55 61 58 65 61 55
3 3 0 0 0 0 0 0 0 0 3 3 3 10 10 10 13 16 16 19 19 16 23 26 35 32 39 42 39 45 42 35 39 42 45 42 45 45 48 42 61 58 55 45
3 3 6 0 0 0 0 0 3 3 3 3 6 6 6 10 10 16 13 13 13 19 26 35 35 35 35 39 39 42 42 39 29 35 39 35 35 32 39 35 45 55 52 55
10 6 3 0 0 0 0 0 0 0 3 3 10 6 3 10 10 6 10 6 16 19 29 35 39 35 39 39 45 48 42 35 29 29 32 32 32 39 39 42 48 52 42 39
3 10 3 0 0 0 0 0 3 3 3 3 13 13 6 6 3 13 19 23 19 26 32 35 32 32 29 39 45 45 32 35 32 26 26 35 39 32 35 42 39 42 45 39
3 6 3 0 0 3 3 3 3 3 13 19 19 16 13 13 23 26 19 16 16 16 29 29 29 29 29 29 35 39 26 29 32 32 29 29 39 39 32 39 39 39 39 42
6 6 6 6 3 3 6 3 3 29 29 19 16 13 16 16 13 13 19 23 19 19 23 26 29 32 32 29 35 29 32 26 29 29 32 32 32 32 29 42 35 42 39 39
0 10 6 6 10 16 23 23 16 16 19 13 19 16 10 10 13 13 23 23 19 19 19 23 26 29 35 32 32 32 26 23 23 26 26 29 26 26 35 32 32 35 32 32
3 10 6 10 6 13 16 13 13 13 13 10 10 6 3 6 6 10 16 23 23 19 26 23 23 26 32 32 26 29 23 19 19 23 26 19 23 26 26 32 32 23 19 19
3 3 0 3 0 3 6 3 3 3 3 6 6 3 3 10 10 13 19 26 29 19 23 26 26 26 26 29 29 23 19 19 19 19 23 23 23 13 19 19 19 19 13 13
0 0 0 3 10 6 10 3 3 0 3 3 6 3 3 10 16 16 19 29 29 23 19 19 23 26 26 26 26 23 19 19 19 16 16 16 16 13 10 16 10 3 6 3
Height
5867 5870 5871 5873 5875 5878 5880 5883 5885 5887 5886 5886 5885 5885 5885 5885 5885 5884 5883 5882 5882 5881 5880 5881 5881 5882 5881 5881 5880 5879 5878 5877 5876 5875 5874 5873 5872 5871 5870 5870 5869 5868 5868 5867
5865 5867 5869 5871 5873 5875 5876 5879 5881 5883 5882 5882 5882 5882 5882 5882 5882 5881 5880 5880 5880 5880 5879 5879 5879 5879 5879 5878 5878 5877 5876 5875 5874 5873 5872 5871 5870 5869 5868 5867 5867 5866 5866 5865
5863 5866 5866 5867 5869 5871 5872 5874 5877 5879 5878 5878 5879 5879 5878 5878 5877 5877 5877 5878 5878 5877 5877 5877 5877 5876 5876 5876 5875 5874 5874 5873 5872 5871 5869 5868 5867 5866 5866 5865 5865 5864 5864 5863
5859 5862 5862 5864 5865 5867 5869 5871 5872 5874 5875 5874 5875 5874 5873 5872 5873 5874 5874 5875 5875 5874 5874 5874 5874 5874 5873 5873 5873 5872 5871 5870 5869 5868 5867 5866 5865 5865 5864 5863 5863 5862 5861 5861
5856 5858 5858 5859 5861 5863 5865 5867 5867 5869 5870 5871 5871 5871 5872 5868 5868 5869 5871 5872 5872 5872 5871 5871 5871 5871 5870 5870 5869 5869 5868 5867 5866 5865 5864 5863 5863 5862 5861 5860 5860 5859 5859 5858
5852 5853 5854 5856 5857 5859 5860 5862 5863 5864 5865 5866 5867 5868 5867 5866 5865 5866 5867 5868 5869 5869 5868 5868 5867 5867 5867 5866 5866 5865 5865 5864 5863 5862 5861 5861 5860 5859 5859 5858 5857 5856 5856 5856
5848 5849 5850 5852 5853 5855 5856 5858 5860 5860 5861 5861 5863 5864 5864 5862 5862 5863 5863 5864 5865 5865 5864 5863 5863 5863 5863 5862 5862 5861 5861 5861 5860 5859 5858 5858 5857 5856 5855 5855 5854 5854 5853 5853
5845 5847 5847 5848 5849 5851 5853 5855 5856 5857 5858 5859 5859 5859 5859 5858 5859 5859 5860 5860 5860 5860 5860 5859 5859 5859 5859 5858 5858 5857 5857 5857 5856 5855 5855 5855 5854 5853 5853 5852 5851 5851 5851 5851
5841 5843 5844 5844 5845 5847 5848 5850 5852 5853 5854 5855 5855 5854 5854 5853 5853 5855 5855 5854 5855 5856 5856 5855 5855 5855 5855 5855 5854 5854 5853 5852 5852 5852 5851 5851 5850 5850 5849 5849 5848 5848 5848 5848
5837 5839 5841 5841 5841 5842 5844 5846 5848 5848 5849 5850 5851 5849 5850 5850 5850 5851 5850 5850 5851 5851 5850 5850 5849 5850 5850 5850 5850 5850 5849 5848 5848 5848 5847 5847 5847 5846 5845 5845 5845 5845 5844 5845
5832 5834 5837 5838 5837 5839 5840 5842 5843 5844 5845 5846 5847 5848 5845 5845 5845 5845 5845 5845 5844 5845 5845 5845 5845 5845 5845 5844 5844 5845 5844 5844 5843 5843 5843 5843 5843 5842 5842 5841 5841 5841 5841 5841
5827 5829 5831 5833 5834 5834 5836 5837 5839 5840 5840 5841 5842 5843 5840 5840 5840 5839 5839 5839 5839 5839 5839 5840 5840 5839 5840 5840 5839 5839 5839 5839 5839 5839 5839 5838 5838 5838 5838 5837 5837 5837 5837 5837
5823 5825 5827 5829 5831 5831 5831 5832 5833 5834 5835 5836 5838 5839 5836 5835 5834 5834 5833 5834 5834 5834 5833 5834 5835 5835 5835 5834 5833 5833 5834 5834 5834 5834 5834 5834 5834 5834 5833 5833 5833 5833 5833 5833
5818 5819 5822 5824 5824 5824 5825 5826 5827 5829 5830 5831 5832 5831 5830 5828 5828 5827 5827 5828 5828 5828 5828 5829 5830 5830 5830 5829 5829 5829 5829 5828 5828 5828 5828 5828 5829 5829 5828 5828 5828 5828 5829 5829
5812 5814 5816 5817 5819 5819 5819 5821 5822 5823 5824 5826 5826 5825 5823 5822 5821 5822 5822 5822 5823 5823 5822 5823 5824 5824 5824 5824 5823 5823 5823 5822 5822 5822 5822 5822 5823 5823 5823 5823 5823 5823 5823 5824
5807 5809 5810 5811 5813 5814 5815 5816 5817 5818 5819 5820 5820 5819 5818 5815 5816 5817 5817 5817 5817 5817 5817 5817 5818 5818 5818 5818 5818 5817 5818 5817 5817 5816 5817 5817 5817 5817 5817 5817 5817 5817 5817 5818
5801 5803 5805 5806 5807 5808 5810 5811 5812 5812 5813 5814 5814 5814 5812 5811 5811 5812 5812 5811 5811 5811 5812 5811 5812 5812 5812 5812 5811 5811 5811 5811 5810 5810 5811 5811 5811 5810 5811 5811 5811 5811 5811 5811
5796 5798 5799 5801 5802 5803 5807 5805 5806 5806 5806 5806 5806 5806 5805 5806 5806 5806 5806 5805 5805 5805 5805 5805 5805 5805 5805 5805 5805 5805 5804 5803 5803 5803 5804 5804 5804 5804 5804 5804 5804 5804 5804 5805
5791 5793 5794 5795 5796 5797 5798 5798 5799 5800 5800 5799 5800 5800 5800 5799 5799 5799 5799 5799 5799 5799 5799 5799 5799 5798 5798 5798 5798 5798 5798 5797 5797 5797 5796 5797 5797 5797 5797 5797 5797 5797 5798 5798
5786 5787 5789 5789 5790 5791 5792 5791 5792 5794 5793 5792 5793 5793 5793 5793 5793 5792 5792 5792 5792 5792 5792 5792 5792 5791 5791 5791 5791 5791 5791 5791 5790 5789 5789 5790 5790 5790 5790 5790 5790 5790 5790 5791
5780 5781 5782 5783 5784 5785 5784 5785 5786 5788 5786 5786 5786 5786 5786 5786 5786 5786 5785 5785 5785 5784 5784 5784 5784 5784 5784 5784 5784 5784 5784 5784 5783 5783 5783 5783 5783 5783 5783 5782 5782 5782 5782 5783
5775 5776 5776 5777 5777 5780 5777 5778 5779 5779 5779 5779 5779 5779 5779 5779 5779 5778 5778 5778 5778 5777 5777 5777 5777 5777 5777 5776 5777 5776 5776 5776 5776 5776 5776 5776 5776 5775 5775 5775 5774 5774 5774 5775
5769 5770 5770 5770 5772 5771 5771 5771 5771 5771 5771 5772 5771 5771 5772 5772 5772 5771 5771 5771 5771 5770 5770 5770 5770 5769 5769 5769 5769 5769 5768 5768 5768 5768 5768 5768 5768 5768 5767 5767 5767 5766 5767 5767
5761 5762 5762 5763 5762 5763 5764 5763 5764 5764 5765 5765 5764 5764 5764 5764 5764 5764 5764 5764 5763 5763 5763 5762 5762 5762 5762 5762 5762 5761 5761 5760 5760 5760 5760 5760 5760 5760 5760 5759 5759 5759 5759 5759
5754 5755 5755 5755 5755 5756 5756 5756 5757 5757 5757 5757 5757 5756 5756 5757 5757 5756 5757 5757 5756 5756 5756 5755 5755 5755 5755 5754 5754 5754 5754 5753 5753 5753 5753 5752 5752 5752 5752 5751 5751 5751 5751 5751
5748 5748 5748 5748 5749 5749 5749 5748 5750 5750 5750 5750 5750 5749 5749 5749 5749 5749 5749 5749 5749 5749 5748 5748 5748 5747 5747 5747 5747 5747 5746 5746 5745 5745 5745 5744 5744 5744 5744 5743 5743 5743 5743 5742
Wind_Speed
14 14 14 14 14 14 12 13 14 16 19 18 17 15 17 18 17 18 18 17 16 14 14 15 15 14 14 15 14 14 14 15 15 14 14 14 13 12 11 10 10 9 9 9
14 14 14 14 15 17 16 17 17 17 19 18 18 17 17 18 17 17 17 17 17 16 15 16 16 15 15 15 15 15 15 16 16 15 15 14 13 12 11 11 10 10 10 11
14 13 15 17 17 18 17 18 17 17 18 18 17 18 19 17 17 16 16 15 17 17 16 17 16 16 16 16 16 16 16 17 17 16 16 14 13 12 12 11 11 11 11 12
14 16 18 18 18 17 17 17 18 18 18 18 16 18 18 19 18 17 16 16 16 18 18 18 17 17 17 17 17 17 17 17 17 17 16 15 14 13 13 13 13 12 12 12
16 17 19 19 17 17 17 17 18 18 20 20 18 17 18 21 21 18 16 16 17 18 18 18 18 18 18 18 17 17 17 17 17 16 15 15 14 14 14 14 13 13 12 12
16 16 18 17 17 18 18 17 17 17 19 22 19 18 19 21 23 20 18 17 18 18 19 18 18 19 19 18 18 18 17 17 16 15 15 15 14 15 15 15 14 13 13 12
16 17 17 18 18 17 17 17 17 19 20 20 17 19 20 21 22 22 20 19 19 20 20 20 19 18 18 19 19 18 17 17 16 15 15 15 14 14 14 14 14 13 13 12
14 16 17 18 18 16 17 17 18 17 17 16 17 22 22 22 22 23 23 22 21 21 21 20 20 19 19 19 19 18 18 17 16 15 15 15 15 15 15 14 14 14 14 13
14 14 15 18 18 17 16 17 17 17 16 17 18 20 23 23 23 23 23 20 19 22 22 21 20 20 19 19 20 19 19 17 16 16 16 15 15 16 15 15 15 15 14 14
15 14 13 15 17 17 17 17 16 17 18 18 19 20 21 21 23 24 23 22 22 23 23 22 21 20 20 20 20 20 19 18 18 17 17 16 16 16 16 16 16 16 16 16
18 17 14 15 15 15 16 17 17 18 18 18 17 20 20 22 24 24 23 22 24 24 23 23 21 21 21 21 20 20 20 20 19 19 18 18 17 17 17 17 17 17 17 17
19 19 18 16 16 15 16 16 18 20 20 19 19 20 22 23 25 23 23 23 22 23 22 22 22 22 21 21 21 20 20 20 20 20 19 19 19 18 18 18 18 18 17 17
19 19 18 16 17 17 18 18 18 19 20 19 19 22 22 24 25 24 24 25 23 23 21 21 22 22 22 22 22 21 21 21 21 21 21 21 21 20 20 19 19 19 19 18
20 20 19 17 17 18 18 18 19 19 20 20 20 22 24 24 24 24 25 24 23 23 22 22 23 23 23 23 23 23 22 22 22 22 22 22 22 22 21 21 21 21 20 20
21 21 20 20 19 18 17 16 18 20 20 20 20 22 23 25 25 25 26 25 24 25 25 23 23 24 24 24 24 24 25 24 24 23 23 23 23 23 23 23 23 22 22 22
21 21 21 20 19 19 19 19 20 21 21 21 22 24 24 25 25 26 26 26 26 27 26 25 25 24 24 25 25 26 26 26 25 24 24 23 24 24 24 24 24 23 23 23
20 20 21 20 20 20 20 19 20 21 22 23 24 25 25 26 26 26 26 27 27 27 26 27 26 26 25 26 27 27 26 26 27 26 26 25 25 25 25 25 24 25 25 25
20 21 21 20 20 21 19 20 21 22 23 25 26 26 25 26 26 26 26 27 27 27 27 27 27 27 27 27 27 27 27 27 26 26 26 26 25 25 25 25 25 26 26 26
21 21 21 20 20 20 20 21 22 22 23 25 25 25 26 26 26 26 27 28 28 28 28 28 27 27 26 26 26 26 26 26 27 26 26 25 25 25 26 26 27 26 26 26
22 21 21 21 21 20 21 22 22 23 25 26 25 25 26 26 26 26 26 27 27 27 27 28 27 27 27 27 27 27 26 26 27 27 26 26 26 26 26 27 27 27 27 27
22 22 22 22 22 23 23 23 23 24 26 27 26 27 27 27 27 27 26 26 26 26 26 26 26 27 27 27 27 27 27 27 27 28 28 28 28 28 27 27 27 28 28 27
22 22 22 23 23 25 26 25 25 26 27 27 28 28 27 28 28 27 27 27 26 26 26 26 26 27 27 27 27 27 27 28 28 28 28 28 28 28 28 27 27 28 29 28
22 23 23 24 25 26 27 27 26 26 27 28 28 27 27 28 28 27 27 27 27 26 27 27 27 27 27 27 27 28 28 28 29 28 28 28 28 28 27 27 27 28 29 29
22 24 25 25 26 27 28 28 28 28 28 28 29 29 27 27 27 27 26 26 26 26 26 27 27 26 26 26 27 27 27 28 28 28 28 28 28 28 28 28 28 27 28 29
24 24 25 26 27 27 27 28 28 28 28 29 29 27 27 27 27 26 26 25 25 25 26 26 26 26 26 26 26 26 27 27 27 27 27 27 28 27 27 27 27 27 27 27
25 25 24 25 26 26 26 24 25 26 26 26 26 25 25 25 25 26 26 26 25 25 25 26 26 25 26 26 25 25 25 25 26 26 26 26 26 26 26 26 27 27 27 27
Wind_Direction
237 235 234 237 236 231 230 237 239 246 255 258 261 262 263 267 271 274 273 273 278 285 287 291 292 294 295 296 299 300 302 306 308 307 304 299 297 297 298 297 296 295 296 300
236 238 237 237 236 236 232 237 239 240 249 254 253 257 263 266 267 266 266 272 277 280 282 288 290 291 293 296 300 299 301 304 305 304 301 300 295 293 296 295 292 292 291 293
234 241 241 239 238 238 238 237 236 244 253 255 253 255 256 259 264 262 265 268 275 278 279 283 285 288 292 295 298 299 300 301 302 302 301 300 299 295 293 292 290 291 293 293
237 239 242 242 241 240 241 240 239 241 245 253 258 256 258 262 263 263 263 266 273 277 280 281 281 283 289 292 294 297 298 299 300 300 300 300 298 296 295 294 292 289 292 294
238 240 243 242 240 240 239 241 243 239 243 250 251 259 262 259 261 263 265 267 273 276 279 280 279 281 283 287 291 294 297 298 297 298 299 299 296 294 294 294 292 288 288 288
239 246 246 245 243 240 241 240 244 241 244 249 245 251 259 262 266 266 269 270 272 276 277 279 280 282 281 283 287 291 294 295 295 295 296 297 296 295 295 295 293 288 287 286
241 243 244 242 243 242 241 240 248 250 252 254 246 248 254 259 263 267 272 273 275 277 275 278 279 281 281 284 286 290 292 293 292 292 293 294 295 295 295 293 291 288 287 287
247 250 249 246 244 245 247 245 248 252 260 263 253 248 251 256 262 269 272 273 274 275 275 274 276 278 279 281 284 285 286 289 290 289 289 290 292 294 294 290 289 288 285 283
233 243 246 250 249 243 243 246 247 247 251 255 253 253 257 265 264 268 272 273 273 274 275 275 273 274 277 279 281 284 285 285 286 287 287 287 290 293 291 287 286 286 285 284
226 234 238 251 253 250 242 240 244 243 247 252 251 254 259 270 274 272 272 274 274 274 272 273 269 268 272 275 277 278 280 280 282 283 285 285 287 288 289 287 284 283 284 283
229 230 231 245 254 253 251 241 237 242 246 250 255 260 265 265 268 273 274 271 270 271 271 272 273 269 270 271 271 274 276 277 279 280 281 283 284 285 286 285 283 281 282 282
235 235 234 238 249 248 248 247 244 244 244 243 247 256 260 265 268 269 268 268 268 271 270 272 271 270 269 270 271 271 273 275 277 277 277 279 281 282 284 284 282 280 280 280
239 241 242 243 249 249 250 248 244 245 245 243 246 257 262 264 268 266 264 267 271 275 273 272 269 269 269 271 271 271 271 272 274 276 276 276 278 280 281 283 281 278 278 277
241 243 242 241 242 249 249 247 246 244 247 250 247 252 259 264 265 265 268 268 271 273 271 271 270 268 268 270 271 272 273 271 271 273 274 275 275 277 278 278 279 277 276 277
244 245 244 243 243 249 255 249 247 247 244 250 253 254 258 263 266 265 267 268 268 271 272 271 271 269 268 269 270 271 273 273 274 271 271 272 273 274 276 276 276 274 273 275
249 246 246 246 246 247 249 253 251 251 250 251 251 253 259 265 267 265 266 266 267 269 271 273 272 272 270 269 269 269 272 274 274 274 273 273 273 273 274 274 274 273 274 275
253 251 249 248 249 250 253 255 255 254 251 251 253 254 260 264 264 266 268 269 269 271 271 272 273 272 271 271 272 272 273 274 273 271 273 273 273 273 274 274 274 272 274 274
254 253 253 254 254 252 253 252 253 255 254 256 258 260 266 268 267 268 267 267 268 270 271 272 274 275 274 272 272 273 273 271 273 272 270 270 273 274 274 273 273 274 275 276
255 254 253 253 257 257 254 253 252 254 258 261 262 263 267 268 269 268 267 268 269 270 271 271 273 274 273 273 272 272 272 272 273 271 269 270 273 274 274 274 273 273 274 274
259 257 255 253 253 259 257 258 257 258 258 261 263 263 266 268 268 269 270 270 271 272 272 271 271 271 272 272 272 271 271 271 271 271 271 271 273 275 276 274 273 272 271 271
258 259 258 255 254 258 260 260 261 258 259 264 265 267 269 269 270 272 272 272 272 273 272 271 271 272 273 272 270 270 270 270 271 271 272 272 272 274 275 275 273 271 270 269
257 260 261 259 256 257 259 263 262 262 264 267 268 270 270 270 271 272 273 273 273 272 272 271 271 272 272 271 270 271 271 270 270 271 271 272 272 273 274 274 273 272 270 269
256 257 257 257 257 258 260 263 266 267 268 268 269 268 269 270 271 271 273 273 274 273 271 272 273 273 273 272 272 271 271 272 272 272 272 272 271 271 273 273 273 273 271 271
256 256 258 259 260 261 262 264 265 267 268 268 270 271 270 269 270 271 271 273 274 274 272 273 273 272 271 272 273 273 273 272 272 272 271 270 270 271 272 273 272 273 272 272
258 259 259 260 262 263 263 264 265 266 268 269 271 273 271 269 270 272 272 274 273 273 273 273 273 272 271 271 273 273 274 273 271 271 272 271 272 271 271 272 273 273 274 273
261 260 260 261 263 264 266 268 268 269 270 270 270 271 270 269 268 269 270 272 272 273 274 273 273 273 272 272 272 273 274 275 274 273 274 274 273 273 272 272 272 273 274 274